Location: Nashville
(36.1660°N, 86.7840°W)
Time: 09:22:48
(UTC-06:00)

Tiangong - Visible Passes

Search period start: 11 December 2023 00:00
Search period end: 21 December 2023 00:00
Orbit: 372 x 383 km, 41.5° (Epoch: 11 December)

Date Brightness Start Highest point End Pass type
(mag) Time Alt. Az. Time Alt. Az. Time Alt. Az.
14 Dec 0.9 05:31:16 10° S 05:33:08 15° SE 05:35:01 10° ESE visible
15 Dec -1.3 06:04:32 10° SW 06:07:32 50° SSE 06:10:35 10° ENE visible
16 Dec -0.1 05:04:32 20° S 05:05:39 26° SSE 05:08:18 10° E visible
17 Dec -2.3 05:38:22 23° WSW 05:40:08 87° SSE 05:43:14 10° ENE visible
18 Dec 0.4 04:39:49 21° E 04:39:49 21° E 04:41:07 10° ENE visible
18 Dec -1.6 06:11:54 10° W 06:14:49 40° NNW 06:17:48 10° ENE visible
19 Dec -1.7 05:13:09 51° NNE 05:13:09 51° NNE 05:15:45 10° ENE visible
20 Dec -1.2 05:46:19 25° NW 05:47:25 32° N 05:50:16 10° ENE visible
